www.pogodaiklimat.ru

Погода и климат >> Архив погоды >> Россия >> Приморский край >> Владивосток


АРХИВ ПОГОДЫ в Владивостоке

Время (UTC), дата Ветер
(напр.,м/с)
 
Видим.   Явления Облачность Т
(С)
Тd
(С)
f
(%)
Тe
(С)
Тes
(С)
Комфортность P
(гПа)
Po
(гПа)
Тmin
(С)
Tmax
(С)
R
(мм)
R24
(мм)
S
(см)
12 13.07 ЮВ 7
{10}
50 км 8/8 600 м
[Sc]
+18.9 +17.6 92 +20 +20 тепло 1006.2 984.5
15 13.07 ЮВ 7 50 км 10/10 600 м
[Sc]
+18.6 +17.8 95 +19 +19 тепло 1006.1 984.4
18 13.07 ЮВ 4 50 км 6/6 600 м
[Sc]
+17.7 +17.2 97 +17 +17 тепло 1007.5 985.6
21 13.07 ЮВ 7 50 км 8/8 600 м
[Sc]
+16.5 +16.0 97 +15 +15 по сезону 1007.4 985.4 +15.8
00 14.07 Ю 1
{11}
50 км {дождь} 10/0
[As op]
+17.7 +16.8 94 +19 +21 тепло 1007.6 985.8 +15.4
03 14.07 ЮВ 7 20 км дождь 10/0 600 м
[As op]
+18.2 +17.9 98 +18 +19 по сезону 1006.9 985.1
06 14.07 Ю 4 20 км {дождь} 10/0
[As op]
+17.5 +16.7 95 +17 +19 по сезону 1006.7 984.8
09 14.07 Ю 7 200 м слабый дождь {туман} ?/? +14.9 +14.9 100 +13 +13 прохладно 1005.4 983.4 +18.9 6
12 14.07 ЮВ 8
{12}
200 м слабый дождь {туман} ?/? +14.9 +14.9 100 +13 +13 прохладно 1006.3 984.3
15 14.07 ЮВ 4
{10}
200 м туман {дождь} ?/? +15.0 +15.0 100 +14 +14 по сезону 1005.7 983.7
18 14.07 ЮВ 3 200 м туман {дождь} ?/? +15.2 +15.2 100 +14 +14 по сезону 1005.5 983.5
21 14.07 штиль 0 200 м туман ?/? +16.6 +16.6 100 +16 +16 по сезону 1006.9 985.0 +14.3 8
00 15.07 Ю 1 500 м туман ясно +20.6 +20.6 100 +26 +39 душно 1007.6 986.0
03 15.07 Ю 2 50 км {туман} 10/0
[Ac cast Cc]
+26.1 +20.8 73 +33 +45 очень
душно
1006.8 985.6
06 15.07 Ю 5 50 км {туман} 10/0
[Ci]
+28.1 +20.6 64 +35 +40 очень
душно
1005.7 984.7
09 15.07 Ю 6
{10}
50 км 10/0
[Ac cast Cc]
+25.5 +20.0 72 +31 +32 очень
душно
1005.2 984.0 +28.3
12 15.07 Ю 7-10
{13}
50 км 8/0
[Ac lent]
+23.9 +19.6 77 +29 +29 душно 1006.5 985.2
15 15.07 Ю 6
{11}
50 км ясно +23.8 +18.8 74 +29 +29 душно 1006.9 985.5
18 15.07 ЮВ 2 50 км ясно +21.9 +18.7 82 +27 +27 душно 1007.2 985.6
21 15.07 Ю 1 50 км 10/0
[Cs]
+23.4 +19.5 79 +30 +31 очень
душно
1007.6 986.1 +20.7
00 16.07 Ю 1 20 км 10/0
[As trans Cs]
+24.7 +20.3 77 +31 +39 очень
душно
1008.3 987.0
03 16.07 Ю 2 20 км 8/0
[As trans Cs]
+28.7 +22.0 67 +37 +51 опасность
солнечного
удара
1007.7 986.7
06 16.07 ЮВ 7 20 км 8/0
[Ac lent Ci fib]
+22.4 +18.5 79 +28 +30 душно 1007.7 986.2
09 16.07 Ю 8-11
{11}
50 км 8/0
[Ac lent Ci fib]
+19.5 +16.8 84 +21 +21 комфорт 1007.7 986.0 +29.3
12 16.07 ЮВ 8
{11}
50 км 10/6 600 м
[Sc Ci fib]
+16.6 +16.1 97 +15 +15 по сезону 1009.0 987.0
15 16.07 ЮВ 8 200 м слабый дождь {туман} ?/? +16.2 +16.2 100 +15 +15 по сезону 1009.1 987.1
18 16.07 Ю 9-11
{11}
200 м туман {дождь} ?/? +15.9 +15.9 100 +14 +14 по сезону 1008.5 986.5
21 16.07 Ю 7-10
{13}
200 м туман ?/? +15.3 +15.3 100 +13 +13 прохладно 1009.1 987.0 +15.3 8
00 17.07 Ю 6
{11}
20 км {туман} 10/10 600 м
[Sc]
+16.2 +16.0 99 +15 +15 по сезону 1009.4 987.4
03 17.07 Ю 5 20 км 10/10 600 м
[Sc]
+18.3 +16.8 91 +18 +18 по сезону 1008.9 987.0
06 17.07 Ю 5 50 км 10/10 600 м
[Sc]
+18.0 +16.7 92 +18 +18 по сезону 1009.0 987.1
09 17.07 Ю 5 50 км 10/10 600 м
[Sc]
+16.9 +15.7 93 +16 +16 по сезону 1009.4 987.4 +19.1
12 17.07 Ю 5 50 км 10/10 200 м
[St]
+15.3 +15.0 98 +14 +14 прохладно 1011.3 989.2
15 17.07 Ю 6 50 км 10/10 200 м
[St]
+14.7 +14.3 97 +13 +13 прохладно 1012.1 989.9
18 17.07 Ю 5 50 км 10/10 200 м
[St]
+14.6 +14.1 97 +13 +13 прохладно 1012.2 990.0
21 17.07 Ю 5 50 км 10/10 600 м
[Sc]
+14.7 +14.0 96 +13 +13 прохладно 1012.8 990.5 +14.5
00 18.07 Ю 6 50 км 10/10 600 м
[Sc]
+16.2 +14.3 89 +15 +15 по сезону 1013.2 991.1
03 18.07 Ю 6 50 км 10/10 600 м
[Sc]
+17.2 +14.4 84 +16 +16 прохладно 1012.6 990.6
06 18.07 Ю 7
{10}
50 км 10/10 600 м
[Sc]
+16.7 +14.1 85 +15 +15 прохладно 1011.1 989.1
09 18.07 Ю 5
{11}
50 км 10/10 1000 м
[Sc]
+17.0 +14.4 85 +16 +16 прохладно 1010.5 988.5 +18.4
12 18.07 ЮВ 7 20 км 10/10 200 м
[St]
+15.3 +15.1 99 +13 +13 прохладно 1010.7 988.6
15 18.07 Ю 5
{10}
200 м туман ?/? +15.2 +15.2 100 +14 +14 прохладно 1010.4 988.3
18 18.07 Ю 6 200 м туман ?/? +15.3 +15.3 100 +14 +14 по сезону 1009.7 987.6
21 18.07 Ю 5 200 м туман {морось} ?/? +15.6 +15.6 100 +14 +14 прохладно 1010.0 987.9 +15.1 0.7
00 19.07 Ю 5 200 м туман {морось} ?/? +16.9 +16.9 100 +16 +16 по сезону 1009.8 987.8
03 19.07 Ю 6 500 м туман ?/? +17.9 +17.9 100 +17 +17 по сезону 1008.5 986.7
06 19.07 ЮВ 6 20 км {туман} 10/10 200 м
[St]
+18.8 +18.3 97 +20 +20 по сезону 1007.8 986.0
09 19.07 ЮВ 7 200 м туман ?/? +17.7 +17.7 100 +17 +17 по сезону 1006.9 985.1 +19.4
12 19.07 ЮВ 6 200 м туман ?/? +17.7 +17.7 100 +17 +17 по сезону 1007.8 985.9
15 19.07 ЮВ 5 200 м туман ?/? +17.7 +17.7 100 +17 +17 по сезону 1007.7 985.9
18 19.07 ЮВ 3 200 м туман ?/? +17.6 +17.6 100 +18 +18 тепло 1007.4 985.5
21 19.07 ЮВ 3 200 м туман ?/? +17.6 +17.6 100 +18 +18 тепло 1007.8 986.0 +17.3
00 20.07 ЮВ 5 200 м туман ?/? +18.1 +18.1 100 +18 +18 по сезону 1007.7 985.9
03 20.07 ЮВ 7 50 км {туман} 8/3 600 м
[Sc Ac lent Cc]
+21.8 +19.3 86 +27 +29 душно 1006.8 985.3
06 20.07 ЮВ 9-11
{11}
50 км {туман} 9/0
[Ac cast Cc]
+21.2 +19.6 91 +26 +27 душно 1005.7 984.2
09 20.07 Ю 6
{11}
200 м туман ?/? +19.4 +19.4 100 +21 +21 комфорт 1005.8 984.2 +22.3

 

Местоположение метеостанции Владивосток (Приморский край, Россия): широта 43.12 долгота 131.90 высота над уровнем моря 188 м.

В архиве по умолчанию представлена погода в Владивостоке за последнюю неделю. Архивные данные за месяц целиком и за предыдущие месяцы, начиная с января 2011 года, Вы можете получить, выбрав интересующий диапазон дат из раскрывающегося списка и нажав кнопку "Ввод!".


*Определитесь, кто Вы:
робот инопланетянин человек

Внимание! Время в таблицах - всемирное. Для получения местного времени необходимо прибавить поправку, которая в Владивостоке равна 10 ч.

Смотрите также архив погоды в соседних городах и на ближайших метеорологических станциях:

Погода на Мысе Назимова (Приморский край, Россия) (8 км)
Погода в Барабаше (Приморский край, Россия) (42 км)
Погода в Многоудобном (Приморский край, Россия) (60 км)
Погода в Находке (Приморский край, Россия) (81 км)
Погода в Гамове (Приморский край, Россия) (84 км)
Погода в Тимирязевском (Приморский край, Россия) (85 км)
Погода в Партизанске (Приморский край, Россия) (89 км)
Погода в Посьете (Приморский край, Россия) (104 км)
Погода в Полтавке (Приморский край, Россия) (112 км)
Погода в Анучино (Приморский край, Россия) (130 км)

Пояснения к столбцам:

Ветер - указаны скорость ветра в м/с - средняя за 10 мин, порывы в срок и между сроками (в фигурных скобках) и направление, откуда дует ветер: С - северный, СВ - северо-восточный, В - восточный, ЮВ - юго-восточный, Ю - южный, ЮЗ - юго-западный, З - западный, СЗ - северо-западный.
Видимость - горизонтальная дальность видимости в метрах или километрах. При видимости от 1 до 10 км при отсутствии осадков обычно наблюдается дымка, при ухудшении видимости до 1 км и менее - туман. В сухую погоду видимость может ухудшаться дымом, пылью или мглою.
Явления - указаны атмосферные явления, наблюдавшиеся в срок или в последний час перед сроком; фигурными скобками обозначены явления, наблюдавшиеся между сроками (за 1-3 часа до срока); квадратными скобками обозначены град или гололедные отложения с указанием их диаметра в мм.
Облачность - указаны через наклонную черту общая и нижняя облачность в баллах и высота нижней границы облаков в метрах; квадратными скобками обозначены формы облаков: Ci - перистые, Cs - перисто-слоистые, Cc - перисто-кучевые, Ac - высококучевые, As - высокослоистые, Sc - слоисто-кучевые, Ns - слоисто-дождевые, Cu - кучевые, Cb - кучево-дождевые. Подробнее классификацию облаков см. в Атласе облаков (PDF).
T - Температура воздуха - температура, измеренная на высоте 2 м над землей.
Td - Температура точки росы - температура, при понижении до которой содержащийся в воздухе водяной пар достигнет насыщения.
f - Относительная влажность воздуха - влажноcть воздуха, измеренная на высоте 2 м над землей.
Te - Эффективная температура - температура, которую ощущает одетый по сезону человек в тени. Характеристика душности погоды. При расчете учитывается влияние влажности воздуха и скорости ветра на теплоощущения человека.
Tes - Эффективная температура на солнце - температура, которую ощущает человек, с поправкой на солнечный нагрев. Характеристика знойности погоды. Зависит от высоты солнца над горизонтом, облачности и скорости ветра. Ночью, в пасмурную погоду, а также при ветре 12 м/с и более поправка равна нулю.
P - Атмосферное давление - приведенное к уровню моря атмосферное давление.
Po - Атмосферное давление - измеренное на уровне метеостанции атмосферное давление.
Tmin - Минимальная температура - минимум температуры воздуха на высоте 2 м над землей.
Tmax - Максимальная температура - максимум температуры воздуха на высоте 2 м над землей.
R - Количество осадков - Количество выпавших осадков за период времени, мм. При наведении курсора мыши на число - период времени, за который выпало указанное количество осадков.
R24 - Количество осадков - Количество выпавших осадков за 24 часа, мм.
S - Снежный покров - Высота снежного покрова, см. При наведении курсора мыши на число - состояние снежного покрова и степень покрытия местности в баллах.